Location: Chervonnoye
(48.6000°N, 34.4000°E)
Time: 13:55:00
(UTC+00:00)

N. Korean satellite - Pass Details

Date: 04 October 2021
Orbit: 450 x 495 km, 97.3° (Epoch: 19 October)

Event Time Altitude Azimuth Distance (km) Brightness Sun altitude
Rises 02:24:52 0° 22° (NNE) 2,558 10.7 -14.2°
Reaches altitude 10° 02:27:09 10° 35° (NE) 1,680 9.9 -13.8°
Maximum altitude 02:30:18 28° 96° (E) 951 8.9 -13.3°
Drops below altitude 10° 02:33:28 10° 156° (SSE) 1,684 9.5 -12.8°
Sets 02:35:45 0° 169° (SSE) 2,565 10.3 -12.4°
